GW0881 Weather Reports


Display with metric or nautical units.
time (UTC)temp
F
wind
direction
speed
MPH
gust
MPH
rain 1hr
in
rain 24hr
in
rain mn
in
humidity
%
barometer
mb
20240718145405 69 212 0.0 0.0 0.00 0.00 0.00 67 1022.4
20240718144903 69 186 1.0 1.0 0.00 0.00 0.00 65 1022.2
20240718144403 68 176 0.0 0.0 0.00 0.00 0.00 60 1022.3
20240718143902 68 214 0.0 0.0 0.00 0.00 0.00 65 1022.4
20240718143401 68 214 0.0 0.0 0.00 0.00 0.00 65 1022.3
20240718142859 68 213 0.0 0.0 0.00 0.00 0.00 66 1022.1
20240718142358 68 213 0.0 0.0 0.00 0.00 0.00 68 1022.3
20240718141856 67 218 0.0 0.0 0.00 0.00 0.00 70 1022.4
20240718141355 67 218 0.0 0.0 0.00 0.00 0.00 72 1022.3
20240718140853 67 206 0.0 0.0 0.00 0.00 0.00 74 1022.4
20240718140352 66 160 1.0 1.0 0.00 0.00 0.00 75 1022.4
20240718135848 66 210 0.0 0.0 0.00 0.00 0.00 75 1022.4
20240718135348 65 214 0.0 0.0 0.00 0.00 0.00 74 1022.5
20240718134847 65 212 0.0 0.0 0.00 0.00 0.00 76 1022.3
20240718134346 65 215 0.0 0.0 0.00 0.00 0.00 78 1022.6
20240718133844 64 206 0.0 0.0 0.00 0.00 0.00 80 1022.5
20240718133342 64 160 0.0 1.0 0.00 0.00 0.00 83 1022.5
20240718132843 63 199 0.0 0.0 0.00 0.00 0.00 84 1022.6
20240718132342 63 202 0.0 0.0 0.00 0.00 0.00 85 1022.6
20240718131841 62 203 0.0 0.0 0.00 0.00 0.00 90 1022.6
20240718131339 61 190 0.0 0.0 0.00 0.00 0.00 93 1022.5
20240718130838 61 190 0.0 0.0 0.00 0.00 0.00 95 1022.6
20240718130336 60 208 0.0 0.0 0.00 0.00 0.00 96 1022.5
20240718125834 60 230 0.0 0.0 0.00 0.00 0.00 96 1022.5
20240718125332 59 215 0.0 0.0 0.00 0.00 0.00 96 1022.5
20240718124830 59 218 0.0 0.0 0.00 0.00 0.00 96 1022.6
20240718124327 58 183 0.0 0.0 0.00 0.00 0.00 96 1022.6
20240718123826 57 201 0.0 0.0 0.00 0.00 0.00 97 1022.7
20240718123326 57 213 0.0 0.0 0.00 0.00 0.00 97 1022.6
20240718122824 56 213 0.0 0.0 0.00 0.00 0.00 96 1022.5
20240718122324 56 213 0.0 0.0 0.00 0.00 0.00 96 1022.5
20240718121821 56 213 0.0 0.0 0.00 0.00 0.00 97 1022.4
20240718121321 56 212 0.0 0.0 0.00 0.00 0.00 97 1022.5
20240718120819 55 211 0.0 0.0 0.00 0.00 0.00 97 1022.3
20240718120319 54 211 0.0 0.0 0.00 0.00 0.00 96 1022.4
20240718115818 54 214 0.0 0.0 0.00 0.00 0.00 96 1022.3
20240718115317 54 214 0.0 0.0 0.00 0.00 0.00 96 1022.4
20240718114815 53 214 0.0 0.0 0.00 0.00 0.00 97 1022.2
20240718114313 53 214 0.0 0.0 0.00 0.00 0.00 96 1022.2
20240718113812 53 214 0.0 0.0 0.00 0.00 0.00 96 1022.2
20240718113311 53 214 0.0 0.0 0.00 0.00 0.00 96 1022.3
20240718112809 53 214 0.0 0.0 0.00 0.00 0.00 96 1022.3
20240718112308 52 214 0.0 0.0 0.00 0.00 0.00 96 1022.4
20240718111808 52 214 0.0 0.0 0.00 0.00 0.00 96 1022.4
20240718111306 52 214 0.0 0.0 0.00 0.00 0.00 96 1022.2
20240718110804 52 214 0.0 0.0 0.00 0.00 0.00 96 1022.3
20240718110304 52 214 0.0 0.0 0.00 0.00 0.00 96 1022.5
20240718105802 52 214 0.0 0.0 0.00 0.00 0.00 96 1022.5
20240718105301 52 214 0.0 0.0 0.00 0.00 0.00 96 1022.4
20240718104805 52 214 0.0 0.0 0.00 0.00 0.00 96 1022.5
20240718104300 52 214 0.0 0.0 0.00 0.00 0.00 96 1022.4
20240718103757 52 214 0.0 0.0 0.00 0.00 0.00 96 1022.5
20240718103256 52 214 0.0 0.0 0.00 0.00 0.00 96 1022.4
20240718102755 52 214 0.0 0.0 0.00 0.00 0.00 96 1022.5
20240718102253 52 214 0.0 0.0 0.00 0.00 0.00 96 1022.3
20240718101751 52 214 0.0 0.0 0.00 0.00 0.00 96 1022.3
20240718101250 53 214 0.0 0.0 0.00 0.00 0.00 96 1022.3
20240718100749 53 214 0.0 0.0 0.00 0.00 0.00 96 1022.2
20240718100247 53 214 0.0 0.0 0.00 0.00 0.00 96 1022.2
20240718095745 53 214 0.0 0.0 0.00 0.00 0.00 96 1022.2
20240718095243 53 214 0.0 0.0 0.00 0.00 0.00 96 1022.2
20240718094741 53 214 0.0 0.0 0.00 0.00 0.00 96 1022.3
20240718094239 53 214 0.0 0.0 0.00 0.00 0.00 96 1022.1
20240718093737 53 214 0.0 0.0 0.00 0.00 0.00 96 1022.1
20240718093235 53 214 0.0 0.0 0.00 0.00 0.00 96 1022.1
20240718092733 53 214 0.0 0.0 0.00 0.00 0.00 95 1022.0
20240718092233 53 214 0.0 0.0 0.00 0.00 0.00 95 1021.9
20240718091731 53 214 0.0 0.0 0.00 0.00 0.00 95 1021.9
20240718091230 53 214 0.0 0.0 0.00 0.00 0.00 95 1021.8
20240718090728 53 214 0.0 0.0 0.00 0.00 0.00 95 1021.7
20240718090228 53 214 0.0 0.0 0.00 0.00 0.00 95 1021.6
20240718085727 53 214 0.0 0.0 0.00 0.00 0.00 95 1021.7
20240718085225 53 214 0.0 0.0 0.00 0.00 0.00 95 1021.6
20240718084725 53 214 0.0 0.0 0.00 0.00 0.00 95 1021.8
20240718084223 53 214 0.0 0.0 0.00 0.00 0.00 95 1021.7
20240718083722 53 214 0.0 0.0 0.00 0.00 0.00 95 1021.9
20240718083221 53 214 0.0 0.0 0.00 0.00 0.00 95 1021.8
20240718082719 53 214 0.0 0.0 0.00 0.00 0.00 95 1021.7
20240718082218 54 214 0.0 0.0 0.00 0.00 0.00 95 1021.8
20240718081716 54 214 0.0 0.0 0.00 0.00 0.00 95 1021.7
20240718081215 54 214 0.0 0.0 0.00 0.00 0.00 95 1021.5
20240718080713 54 214 0.0 0.0 0.00 0.00 0.00 95 1021.7
20240718080213 54 213 0.0 0.0 0.00 0.00 0.00 95 1021.5
20240718075713 54 212 0.0 0.0 0.00 0.00 0.00 94 1021.6
20240718075209 54 212 0.0 0.0 0.00 0.00 0.00 94 1021.6
20240718074709 54 214 0.0 0.0 0.00 0.00 0.00 94 1021.5
20240718074208 54 214 0.0 0.0 0.00 0.00 0.00 94 1021.5
20240718073707 54 214 0.0 0.0 0.00 0.00 0.00 94 1021.7
20240718073206 54 214 0.0 0.0 0.00 0.00 0.00 94 1021.6
20240718072706 54 214 0.0 0.0 0.00 0.00 0.00 94 1021.6
20240718072205 54 214 0.0 0.0 0.00 0.00 0.00 94 1021.4
20240718071703 54 214 0.0 0.0 0.00 0.00 0.00 94 1021.7
20240718071201 54 214 0.0 0.0 0.00 0.00 0.00 94 1021.4
20240718070659 54 214 0.0 0.0 0.00 0.00 0.00 94 1021.4
20240718070157 55 214 0.0 0.0 0.00 0.00 0.00 94 1021.5
20240718065655 54 214 0.0 0.0 0.00 0.00 0.00 93 1021.6
20240718065154 55 214 0.0 0.0 0.00 0.00 0.00 93 1021.5
20240718064652 55 214 0.0 0.0 0.00 0.00 0.00 93 1021.5
20240718064150 55 214 0.0 0.0 0.00 0.00 0.00 93 1021.6
20240718063649 55 211 0.0 0.0 0.00 0.00 0.00 93 1021.6
20240718063148 55 215 0.0 0.0 0.00 0.00 0.00 93 1021.6
20240718062647 55 216 0.0 0.0 0.00 0.00 0.00 93 1021.5
20240718062147 55 216 0.0 0.0 0.00 0.00 0.00 93 1021.5
20240718061646 55 216 0.0 0.0 0.00 0.00 0.00 92 1021.3
20240718061145 55 216 0.0 0.0 0.00 0.00 0.00 92 1021.2
20240718060643 55 215 0.0 0.0 0.00 0.00 0.00 92 1021.1
20240718060143 55 215 0.0 0.0 0.00 0.00 0.00 92 1021.2
20240718055641 55 215 0.0 0.0 0.00 0.00 0.00 92 1021.1
20240718055141 55 215 0.0 0.0 0.00 0.00 0.00 92 1021.2
20240718054640 55 217 0.0 0.0 0.00 0.00 0.00 92 1021.1
20240718054138 55 218 0.0 0.0 0.00 0.00 0.00 92 1021.3
20240718053637 56 218 0.0 0.0 0.00 0.00 0.00 92 1021.2
20240718053136 56 216 0.0 0.0 0.00 0.00 0.00 92 1020.9
20240718052635 56 216 0.0 0.0 0.00 0.00 0.00 92 1021.0
20240718052135 56 216 0.0 0.0 0.00 0.00 0.00 92 1021.0
20240718051633 56 216 0.0 0.0 0.00 0.00 0.00 92 1020.9
20240718051133 56 216 0.0 0.0 0.00 0.00 0.00 92 1021.0
20240718050630 56 215 0.0 0.0 0.00 0.00 0.00 92 1020.8
20240718050130 56 215 0.0 0.0 0.00 0.00 0.00 91 1021.0
20240718045628 56 216 0.0 0.0 0.00 0.00 0.00 91 1020.8
20240718045127 56 216 0.0 0.0 0.00 0.00 0.00 91 1020.9
20240718044626 56 216 0.0 0.0 0.00 0.00 0.00 91 1020.7
20240718044125 56 215 0.0 0.0 0.00 0.00 0.00 91 1020.8
20240718043625 57 215 0.0 0.0 0.00 0.00 0.00 91 1020.8
20240718043124 57 215 0.0 0.0 0.00 0.00 0.00 90 1020.7
20240718042622 56 216 0.0 0.0 0.00 0.00 0.00 90 1020.6
20240718042120 57 218 0.0 0.0 0.00 0.00 0.00 89 1020.7
20240718041619 57 216 0.0 0.0 0.00 0.00 0.00 89 1020.6
20240718041117 57 216 0.0 0.0 0.00 0.00 0.00 89 1020.6
20240718040615 57 216 0.0 0.0 0.00 0.00 0.00 89 1020.4
20240718040114 57 215 0.0 0.0 0.00 0.00 0.00 88 1020.6
20240718035613 57 215 0.0 0.0 0.00 0.00 0.00 88 1020.3
20240718035110 57 216 0.0 0.0 0.00 0.00 0.00 88 1020.4
20240718034609 57 216 0.0 0.0 0.00 0.00 0.00 86 1020.2
20240718034108 58 216 0.0 0.0 0.00 0.00 0.00 86 1020.3
20240718033606 58 216 0.0 0.0 0.00 0.00 0.00 86 1020.3
20240718033105 58 216 0.0 0.0 0.00 0.00 0.00 85 1020.3
20240718032603 58 216 0.0 0.0 0.00 0.00 0.00 85 1020.4
20240718032103 58 216 0.0 0.0 0.00 0.00 0.00 85 1020.3
20240718031602 58 216 0.0 0.0 0.00 0.00 0.00 85 1020.3
20240718031101 59 215 0.0 0.0 0.00 0.00 0.00 84 1020.2
20240718030559 59 215 0.0 0.0 0.00 0.00 0.00 84 1020.6
20240718030057 59 215 0.0 0.0 0.00 0.00 0.00 83 1020.2
20240718025553 60 215 0.0 0.0 0.00 0.00 0.00 83 1020.3
20240718025051 60 215 0.0 0.0 0.00 0.00 0.00 82 1020.2
20240718024548 60 215 0.0 0.0 0.00 0.00 0.00 80 1020.1
20240718024046 60 215 0.0 0.0 0.00 0.00 0.00 80 1020.1
20240718023546 61 215 0.0 0.0 0.00 0.00 0.00 80 1020.1
20240718023045 61 214 0.0 0.0 0.00 0.00 0.00 79 1020.0
20240718022544 61 216 0.0 0.0 0.00 0.00 0.00 79 1019.8
20240718022042 62 215 0.0 0.0 0.00 0.00 0.00 78 1019.9
20240718021541 62 213 0.0 0.0 0.00 0.00 0.00 77 1019.8
20240718021039 63 214 0.0 0.0 0.00 0.00 0.00 77 1019.9
20240718020537 63 213 0.0 0.0 0.00 0.00 0.00 77 1019.8
20240718020035 64 212 0.0 0.0 0.00 0.00 0.00 74 1019.7
20240718015532 64 213 0.0 0.0 0.00 0.00 0.00 74 1019.5
20240718015031 65 213 0.0 0.0 0.00 0.00 0.00 74 1019.5
20240718014529 65 212 0.0 0.0 0.00 0.00 0.00 72 1019.6
20240718014029 66 213 0.0 0.0 0.00 0.00 0.00 70 1019.6
20240718013528 66 211 0.0 0.0 0.00 0.00 0.00 68 1019.7
20240718013026 67 213 0.0 0.0 0.00 0.00 0.00 68 1019.7
20240718012525 68 213 0.0 0.0 0.00 0.00 0.00 66 1019.5
20240718012023 68 211 0.0 0.0 0.00 0.00 0.00 64 1019.5
20240718011522 68 213 0.0 0.0 0.00 0.00 0.00 62 1019.4
20240718011021 68 209 0.0 0.0 0.00 0.00 0.00 61 1019.7
20240718010521 68 226 0.0 0.0 0.00 0.00 0.00 61 1019.7
20240718010019 69 228 0.0 1.0 0.00 0.00 0.00 61 1019.6
20240718005517 69 185 1.0 1.0 0.00 0.00 0.00 61 1019.5
20240718005017 69 354 1.0 2.0 0.00 0.00 0.00 60 1019.5
20240718004516 69 107 1.0 1.0 0.00 0.00 0.00 61 1019.4
20240718004015 69 182 1.0 1.0 0.00 0.00 0.00 60 1019.6
20240718003515 69 300 1.0 1.0 0.00 0.00 0.00 59 1019.6
20240718003015 69 157 1.0 1.0 0.00 0.00 0.00 59 1019.6
20240718002515 70 59 2.0 2.0 0.00 0.00 0.00 57 1019.7
20240718002014 70 131 1.0 1.0 0.00 0.00 0.00 59 1019.6
20240718001514 70 231 1.0 1.0 0.00 0.00 0.00 58 1019.6
20240718001012 70 346 1.0 1.0 0.00 0.00 0.00 58 1019.7
20240718000511 70 54 1.0 1.0 0.00 0.00 0.00 56 1019.7
20240718000010 70 317 2.0 2.0 0.00 0.00 0.00 58 1019.6
20240717235504 70 30 2.0 2.0 0.00 0.00 0.00 57 1019.9
20240717235003 71 355 2.0 2.0 0.00 0.00 0.00 54 1019.6
20240717234501 70 18 1.0 2.0 0.00 0.00 0.00 58 1019.7
20240717233959 70 247 1.0 1.0 0.00 0.00 0.00 58 1019.8
20240717233458 69 321 1.0 1.0 0.00 0.00 0.00 57 1019.8
20240717232957 69 158 0.0 1.0 0.00 0.00 0.00 62 1019.9
20240717232456 69 267 1.0 2.0 0.00 0.00 0.00 58 1019.7
20240717231955 70 20 2.0 3.0 0.00 0.00 0.00 56 1019.8
20240717231454 70 0 2.0 3.0 0.00 0.00 0.00 56 1019.7
20240717230953 71 55 2.0 3.0 0.00 0.00 0.00 55 1019.6
20240717230451 71 248 2.0 2.0 0.00 0.00 0.00 57 1019.7
20240717225949 71 26 5.0 7.0 0.00 0.00 0.00 52 1019.6
20240717225449 71 272 1.0 2.0 0.00 0.00 0.00 58 1019.7
20240717224947 70 329 3.0 5.0 0.00 0.00 0.00 60 1019.7
20240717224445 70 39 4.0 7.0 0.00 0.00 0.00 57 1019.8
20240717223945 70 26 4.0 6.0 0.00 0.00 0.00 56 1019.6
20240717223443 71 19 3.0 3.0 0.00 0.00 0.00 56 1019.7
20240717222942 70 20 2.0 2.0 0.00 0.00 0.00 58 1019.6
20240717222439 71 51 4.0 6.0 0.00 0.00 0.00 56 1019.6
20240717221938 71 2 3.0 3.0 0.00 0.00 0.00 54 1019.6
20240717221437 71 66 3.0 3.0 0.00 0.00 0.00 57 1019.7
20240717220935 71 28 3.0 3.0 0.00 0.00 0.00 55 1019.7
20240717220433 71 19 2.0 2.0 0.00 0.00 0.00 61 1019.8
20240717215929 71 1 5.0 8.0 0.00 0.00 0.00 58 1019.6
20240717215427 72 38 2.0 2.0 0.00 0.00 0.00 55 1019.6
20240717214927 71 3 7.0 8.0 0.00 0.00 0.00 53 1019.6
20240717214426 71 19 3.0 3.0 0.00 0.00 0.00 54 1019.7
20240717213925 71 31 2.0 3.0 0.00 0.00 0.00 57 1019.7
20240717213425 70 66 3.0 6.0 0.00 0.00 0.00 58 1019.9
20240717212925 71 31 3.0 5.0 0.00 0.00 0.00 59 1019.7
20240717212423 72 49 3.0 5.0 0.00 0.00 0.00 55 1019.8
20240717211921 72 228 2.0 5.0 0.00 0.00 0.00 56 1019.7
20240717211421 71 32 3.0 5.0 0.00 0.00 0.00 59 1019.8
20240717210919 71 64 3.0 5.0 0.00 0.00 0.00 59 1019.7
20240717210418 72 31 4.0 5.0 0.00 0.00 0.00 60 1019.9
20240717205916 71 44 3.0 3.0 0.00 0.00 0.00 56 1019.8
20240717205415 70 28 2.0 3.0 0.00 0.00 0.00 61 1019.7
20240717204913 70 50 3.0 5.0 0.00 0.00 0.00 58 1019.8
20240717204412 71 12 3.0 5.0 0.00 0.00 0.00 59 1019.9
20240717203910 72 357 5.0 10.0 0.00 0.00 0.00 55 1019.7
20240717203408 72 277 1.0 2.0 0.00 0.00 0.00 55 1019.5
20240717202903 71 20 4.0 7.0 0.00 0.00 0.00 54 1019.7
20240717202401 72 255 1.0 2.0 0.00 0.00 0.00 58 1019.7
20240717201859 71 14 5.0 7.0 0.00 0.00 0.00 54 1019.8
20240717201357 71 23 8.0 10.0 0.00 0.00 0.00 53 1020.0
20240717200855 71 16 6.0 9.0 0.00 0.00 0.00 57 1019.6
20240717200354 71 287 2.0 2.0 0.00 0.00 0.00 57 1019.8
20240717195846 71 54 3.0 5.0 0.00 0.00 0.00 60 1019.7
20240717195345 70 256 1.0 1.0 0.00 0.00 0.00 55 1019.6
20240717194844 70 314 1.0 2.0 0.00 0.00 0.00 59 1020.0
20240717194342 69 37 3.0 3.0 0.00 0.00 0.00 63 1020.0
20240717193841 70 16 3.0 5.0 0.00 0.00 0.00 59 1019.8
20240717193340 71 11 1.0 2.0 0.00 0.00 0.00 59 1019.7
20240717192838 69 179 3.0 5.0 0.00 0.00 0.00 57 1019.8
20240717192336 70 236 1.0 1.0 0.00 0.00 0.00 58 1019.7
20240717191835 71 82 4.0 5.0 0.00 0.00 0.00 58 1019.7
20240717191333 71 46 3.0 5.0 0.00 0.00 0.00 59 1019.6
20240717190831 71 29 5.0 6.0 0.00 0.00 0.00 55 1019.5
20240717190331 70 24 4.0 5.0 0.00 0.00 0.00 54 1019.4
20240717185828 69 51 4.0 6.0 0.00 0.00 0.00 59 1019.5
20240717185328 70 40 5.0 7.0 0.00 0.00 0.00 58 1019.4
20240717184828 69 180 1.0 1.0 0.00 0.00 0.00 54 1019.4
20240717184327 70 9 5.0 7.0 0.00 0.00 0.00 59 1019.5
20240717183827 70 93 2.0 3.0 0.00 0.00 0.00 55 1019.5
20240717183325 70 33 3.0 3.0 0.00 0.00 0.00 58 1019.6
20240717182824 70 33 4.0 6.0 0.00 0.00 0.00 60 1019.4
20240717182323 70 46 4.0 5.0 0.00 0.00 0.00 57 1019.4
20240717181822 69 349 3.0 3.0 0.00 0.00 0.00 57 1019.3
20240717181321 69 44 3.0 5.0 0.00 0.00 0.00 55 1019.6
20240717180819 68 61 5.0 9.0 0.00 0.00 0.00 59 1019.6
20240717180318 69 30 6.0 7.0 0.00 0.00 0.00 55 1019.6
20240717175817 69 350 2.0 2.0 0.00 0.00 0.00 59 1019.6
20240717175315 69 30 5.0 7.0 0.00 0.00 0.00 58 1019.7
20240717174813 69 357 3.0 3.0 0.00 0.00 0.00 60 1019.6
20240717174310 69 29 5.0 8.0 0.00 0.00 0.00 58 1019.8
20240717173809 69 30 3.0 3.0 0.00 0.00 0.00 57 1019.7
20240717173308 69 56 5.0 6.0 0.00 0.00 0.00 59 1019.6
20240717172807 69 11 4.0 5.0 0.00 0.00 0.00 57 1019.7
20240717172306 69 195 4.0 5.0 0.00 0.00 0.00 57 1019.6
20240717171805 69 53 3.0 3.0 0.00 0.00 0.00 58 1019.7
20240717171305 69 31 4.0 6.0 0.00 0.00 0.00 59 1019.8
20240717170802 69 56 6.0 8.0 0.00 0.00 0.00 58 1019.7
20240717170301 68 35 6.0 8.0 0.00 0.00 0.00 61 1020.0
20240717165800 68 15 3.0 3.0 0.00 0.00 0.00 59 1019.8
20240717165259 68 0 6.0 6.0 0.00 0.00 0.00 63 1019.8
20240717164759 68 86 4.0 5.0 0.00 0.00 0.00 62 1019.6
20240717164259 68 18 7.0 9.0 0.00 0.00 0.00 61 1019.9
20240717163757 67 20 7.0 9.0 0.00 0.00 0.00 61 1019.8
20240717163255 67 37 3.0 3.0 0.00 0.00 0.00 63 1019.7
20240717162754 67 68 3.0 3.0 0.00 0.00 0.00 63 1019.6
20240717162251 66 15 3.0 5.0 0.00 0.00 0.00 64 1019.6
20240717161750 67 42 4.0 5.0 0.00 0.00 0.00 65 1019.7
20240717161249 66 357 6.0 9.0 0.00 0.00 0.00 63 1019.6
20240717160747 67 52 5.0 6.0 0.00 0.00 0.00 64 1019.9
20240717160246 67 43 4.0 7.0 0.00 0.00 0.00 62 1019.6
20240717155745 66 45 2.0 3.0 0.00 0.00 0.00 62 1019.6
20240717155244 66 18 3.0 5.0 0.00 0.00 0.00 63 1019.8
20240717154743 66 37 7.0 9.0 0.00 0.00 0.00 62 1019.6
20240717154241 66 67 3.0 6.0 0.00 0.00 0.00 65 1019.7
20240717153741 65 42 3.0 5.0 0.00 0.00 0.00 63 1019.7
20240717153239 65 18 4.0 6.0 0.00 0.00 0.00 66 1019.7
20240717152738 65 66 3.0 3.0 0.00 0.00 0.00 65 1019.7
20240717152236 65 33 5.0 7.0 0.00 0.00 0.00 64 1019.5
20240717151734 65 64 5.0 6.0 0.00 0.00 0.00 65 1019.4
20240717151232 65 35 5.0 6.0 0.00 0.00 0.00 64 1019.4
20240717150731 65 0 4.0 6.0 0.00 0.00 0.00 66 1019.5
20240717150230 65 37 3.0 3.0 0.00 0.00 0.00 69 1019.3
20240717145728 65 47 5.0 8.0 0.00 0.00 0.00 68 1019.4